N22318 KCHA-KAGS

Flight info

Callsign N22318
Flight time N/A
Altitude 31000
Route ODF/N0282F300 AHN/N0281F290 PLYRR CLUBB CADIE
Aircraft SF50/L-SDGRWY/L

Departure

Time 2026-04-20 21:24
Airport Chattanooga Metropolitan Airport (Lovell Field) (KCHA)

Arrival

Time N/A
Airport Augusta Regional At Bush Field (KAGS)
Time Latitude Longitude Altitude Speed Heading
2026-04-20 20:56 35.02717 -85.20336 673 ft 0 kts 106°
2026-04-20 21:18 35.02720 -85.20350 673 ft 0 kts 106°
2026-04-20 21:19 35.02724 -85.20345 673 ft 2 kts 331°
2026-04-20 21:19 35.02725 -85.20346 673 ft 0 kts 326°
2026-04-20 21:20 35.02808 -85.20349 673 ft 20 kts 15°
2026-04-20 21:20 35.02874 -85.20344 673 ft 11 kts 211°
2026-04-20 21:20 35.02941 -85.20368 673 ft 22 kts 21°
2026-04-20 21:20 35.03075 -85.20316 674 ft 18 kts 15°
2026-04-20 21:21 35.03092 -85.20312 674 ft 4 kts 193°
2026-04-20 21:21 35.02990 -85.20344 674 ft 18 kts 195°
2026-04-20 21:21 35.02859 -85.20395 673 ft 21 kts 196°
2026-04-20 21:21 35.02706 -85.20450 673 ft 25 kts 195°
2026-04-20 21:22 35.02551 -85.20509 673 ft 20 kts 198°
2026-04-20 21:22 35.02428 -85.20553 672 ft 15 kts 196°
2026-04-20 21:22 35.02361 -85.20577 672 ft 9 kts 197°
2026-04-20 21:22 35.02281 -85.20605 672 ft 14 kts 202°
2026-04-20 21:23 35.02267 -85.20717 673 ft 14 kts 286°
2026-04-20 21:23 35.02313 -85.20733 673 ft 0 kts 19°
2026-04-20 21:23 35.02502 -85.20664 672 ft 70 kts 17°
2026-04-20 21:23 35.03200 -85.20424 923 ft 126 kts 15°
2026-04-20 21:24 35.04123 -85.20259 1409 ft 146 kts 344°
2026-04-20 21:24 35.04826 -85.21174 1930 ft 163 kts 281°
2026-04-20 21:24 35.04467 -85.22428 2677 ft 164 kts 224°
2026-04-20 21:24 35.03777 -85.23523 3325 ft 168 kts 257°
2026-04-20 21:25 35.04130 -85.24813 4054 ft 170 kts 318°
2026-04-20 21:25 35.05266 -85.25095 4679 ft 181 kts 13°
2026-04-20 21:25 35.06316 -85.24075 4726 ft 213 kts 60°
2026-04-20 21:25 35.06510 -85.22200 4730 ft 240 kts 102°
2026-04-20 21:26 35.05904 -85.20234 4735 ft 255 kts 114°
2026-04-20 21:26 35.05154 -85.18232 4735 ft 263 kts 115°
2026-04-20 21:26 35.04378 -85.16186 4732 ft 267 kts 115°
2026-04-20 21:26 35.03899 -85.14006 4719 ft 268 kts 96°
2026-04-20 21:27 35.03749 -85.11741 4821 ft 264 kts 96°
2026-04-20 21:27 35.03462 -85.09628 5577 ft 240 kts 103°
2026-04-20 21:27 35.03081 -85.07758 6595 ft 214 kts 104°
2026-04-20 21:27 35.02767 -85.06096 7682 ft 189 kts 102°
2026-04-20 21:28 35.02492 -85.04547 8423 ft 188 kts 103°
2026-04-20 21:28 35.02204 -85.02970 8986 ft 195 kts 103°
2026-04-20 21:28 35.01895 -85.01263 8917 ft 204 kts 102°
2026-04-20 21:28 35.01601 -84.99622 8811 ft 195 kts 103°
2026-04-20 21:29 35.01313 -84.98026 8690 ft 191 kts 103°
2026-04-20 21:29 35.01027 -84.96447 8564 ft 190 kts 103°
2026-04-20 21:29 35.00738 -84.94851 8580 ft 202 kts 103°
2026-04-20 21:29 35.00442 -84.93217 8894 ft 193 kts 103°
2026-04-20 21:30 35.00150 -84.91602 9556 ft 192 kts 103°
2026-04-20 21:30 34.99861 -84.90011 10241 ft 194 kts 103°
2026-04-20 21:30 34.99573 -84.88417 10872 ft 196 kts 103°
2026-04-20 21:30 34.99272 -84.86767 11512 ft 198 kts 103°
2026-04-20 21:31 34.98976 -84.85142 12105 ft 200 kts 103°
2026-04-20 21:31 34.98672 -84.83479 12692 ft 202 kts 103°
2026-04-20 21:31 34.98366 -84.81802 13266 ft 204 kts 103°
2026-04-20 21:31 34.98057 -84.80109 13818 ft 205 kts 103°
2026-04-20 21:32 34.97744 -84.78402 14369 ft 207 kts 103°
2026-04-20 21:32 34.97429 -84.76677 14901 ft 209 kts 103°
2026-04-20 21:32 34.97113 -84.74939 15424 ft 211 kts 103°
2026-04-20 21:32 34.96792 -84.73187 15925 ft 213 kts 103°
2026-04-20 21:33 34.96468 -84.71420 16428 ft 215 kts 103°
2026-04-20 21:33 34.96141 -84.69636 16890 ft 217 kts 103°
2026-04-20 21:33 34.95812 -84.67836 17349 ft 218 kts 103°
2026-04-20 21:33 34.95477 -84.66025 17816 ft 220 kts 103°
2026-04-20 21:34 34.95143 -84.64202 18254 ft 222 kts 103°
2026-04-20 21:34 34.94802 -84.62363 18682 ft 223 kts 103°
2026-04-20 21:34 34.94461 -84.60508 19104 ft 225 kts 103°
2026-04-20 21:34 34.94117 -84.58644 19516 ft 227 kts 103°
2026-04-20 21:35 34.93767 -84.56761 19888 ft 229 kts 103°
2026-04-20 21:35 34.93420 -84.54864 20264 ft 230 kts 103°
2026-04-20 21:35 34.93068 -84.52958 20648 ft 231 kts 103°
2026-04-20 21:35 34.92712 -84.51037 20996 ft 233 kts 103°
2026-04-20 21:36 34.92358 -84.49118 21389 ft 232 kts 103°
2026-04-20 21:36 34.92004 -84.47207 21791 ft 231 kts 103°
2026-04-20 21:36 34.91648 -84.45301 22189 ft 231 kts 103°
2026-04-20 21:36 34.91294 -84.43396 22576 ft 230 kts 103°
2026-04-20 21:37 34.90940 -84.41496 22963 ft 230 kts 103°
2026-04-20 21:37 34.90587 -84.39599 23345 ft 229 kts 103°
2026-04-20 21:37 34.90233 -84.37703 23723 ft 229 kts 103°
2026-04-20 21:37 34.89881 -84.35814 24096 ft 229 kts 103°
2026-04-20 21:38 34.89527 -84.33924 24471 ft 228 kts 103°
2026-04-20 21:38 34.89176 -84.32041 24845 ft 228 kts 103°
2026-04-20 21:38 34.88825 -84.30160 25218 ft 228 kts 103°
2026-04-20 21:38 34.88473 -84.28279 25592 ft 227 kts 103°
2026-04-20 21:39 34.88123 -84.26404 25956 ft 227 kts 103°
2026-04-20 21:39 34.87771 -84.24531 26321 ft 227 kts 103°
2026-04-20 21:39 34.87422 -84.22660 26676 ft 226 kts 103°
2026-04-20 21:39 34.87070 -84.20792 27031 ft 226 kts 103°
2026-04-20 21:40 34.86719 -84.18926 27385 ft 226 kts 103°
2026-04-20 21:40 34.86372 -84.17087 27723 ft 226 kts 103°
2026-04-20 21:40 34.86021 -84.15225 28056 ft 226 kts 103°
2026-04-20 21:40 34.85670 -84.13362 28388 ft 225 kts 103°
2026-04-20 21:41 34.85318 -84.11504 28721 ft 225 kts 103°
2026-04-20 21:41 34.84968 -84.09650 29053 ft 225 kts 103°
2026-04-20 21:41 34.84618 -84.07799 29382 ft 224 kts 103°
2026-04-20 21:41 34.84267 -84.05951 29703 ft 224 kts 103°
2026-04-20 21:42 34.83919 -84.04105 30024 ft 224 kts 103°
2026-04-20 21:42 34.83569 -84.02262 30332 ft 223 kts 103°
2026-04-20 21:42 34.83221 -84.00420 30641 ft 223 kts 103°
2026-04-20 21:42 34.82872 -83.98582 30948 ft 223 kts 103°
2026-04-20 21:43 34.82515 -83.96698 30998 ft 235 kts 103°
2026-04-20 21:43 34.82138 -83.94713 31011 ft 246 kts 103°
2026-04-20 21:43 34.81746 -83.92651 31010 ft 254 kts 103°
2026-04-20 21:43 34.81340 -83.90521 31008 ft 262 kts 103°
2026-04-20 21:44 34.80922 -83.88330 31011 ft 269 kts 103°
2026-04-20 21:44 34.80491 -83.86083 31009 ft 276 kts 103°
2026-04-20 21:44 34.80051 -83.83778 31010 ft 283 kts 103°
2026-04-20 21:44 34.79599 -83.81416 31009 ft 290 kts 103°
2026-04-20 21:45 34.79137 -83.79005 31009 ft 295 kts 103°
2026-04-20 21:45 34.78666 -83.76559 31009 ft 299 kts 103°
2026-04-20 21:45 34.78192 -83.74082 31006 ft 303 kts 103°
2026-04-20 21:46 34.77224 -83.69052 31008 ft 308 kts 103°
2026-04-20 21:46 34.76241 -83.63954 31009 ft 311 kts 103°
2026-04-20 21:47 34.75248 -83.58823 31010 ft 312 kts 103°
2026-04-20 21:47 34.74251 -83.53671 31009 ft 313 kts 103°
2026-04-20 21:48 34.73251 -83.48522 31008 ft 313 kts 103°
2026-04-20 21:48 34.72249 -83.43379 31009 ft 313 kts 103°
2026-04-20 21:49 34.71244 -83.38241 31009 ft 312 kts 103°
2026-04-20 21:49 34.70509 -83.35812 30998 ft 311 kts 118°
2026-04-20 21:49 34.69269 -83.33626 30994 ft 311 kts 132°
2026-04-20 21:49 34.67654 -83.31900 30992 ft 309 kts 146°
2026-04-20 21:50 34.65778 -83.30714 30990 ft 308 kts 160°
2026-04-20 21:50 34.63705 -83.30099 30992 ft 307 kts 174°
2026-04-20 21:50 34.61579 -83.30060 30994 ft 305 kts 183°
2026-04-20 21:51 34.57335 -83.30214 30994 ft 305 kts 182°
2026-04-20 21:51 34.53096 -83.30368 30995 ft 305 kts 182°
2026-04-20 21:52 34.48858 -83.30522 30995 ft 305 kts 182°
2026-04-20 21:52 34.44620 -83.30677 30994 ft 305 kts 182°
2026-04-20 21:53 34.40383 -83.30831 30995 ft 305 kts 182°
2026-04-20 21:53 34.36148 -83.30985 30995 ft 304 kts 182°
2026-04-20 21:54 34.31911 -83.31139 30995 ft 304 kts 182°
2026-04-20 21:54 34.27685 -83.31345 30992 ft 304 kts 185°
2026-04-20 21:55 34.23436 -83.31499 30991 ft 307 kts 184°
2026-04-20 21:55 34.19157 -83.31652 30990 ft 308 kts 184°
2026-04-20 21:56 34.15595 -83.31779 30992 ft 308 kts 184°
2026-04-20 21:56 34.11326 -83.31934 30992 ft 306 kts 184°
2026-04-20 21:57 34.07079 -83.32086 30992 ft 305 kts 184°
2026-04-20 21:57 34.02846 -83.32237 30992 ft 304 kts 184°
2026-04-20 21:58 33.98656 -83.31737 30974 ft 307 kts 163°
2026-04-20 21:58 33.96738 -83.30608 30972 ft 309 kts 149°
2026-04-20 21:58 33.95099 -83.28936 30972 ft 310 kts 135°
2026-04-20 21:58 33.93848 -83.26820 30972 ft 312 kts 121°
2026-04-20 21:59 33.93068 -83.24388 30973 ft 313 kts 106°
2026-04-20 21:59 33.92066 -83.19307 30992 ft 311 kts 105°
2026-04-20 22:00 33.91032 -83.14248 30992 ft 311 kts 105°
2026-04-20 22:00 33.90014 -83.09234 30991 ft 310 kts 105°
2026-04-20 22:01 33.88988 -83.04195 30991 ft 310 kts 105°
2026-04-20 22:01 33.87962 -82.99162 30991 ft 309 kts 105°
2026-04-20 22:02 33.86933 -82.94134 30991 ft 309 kts 105°
2026-04-20 22:02 33.85905 -82.89112 30990 ft 309 kts 105°
2026-04-20 22:03 33.84875 -82.84094 30990 ft 309 kts 105°
2026-04-20 22:03 33.83842 -82.79077 30990 ft 309 kts 105°
2026-04-20 22:04 33.82808 -82.74062 30990 ft 309 kts 106°
2026-04-20 22:04 33.81770 -82.69048 30990 ft 309 kts 106°
2026-04-20 22:05 33.80386 -82.64187 31019 ft 308 kts 123°
2026-04-20 22:05 33.77823 -82.60075 31000 ft 308 kts 129°
2026-04-20 22:06 33.75225 -82.55985 30990 ft 308 kts 129°
2026-04-20 22:06 33.72618 -82.51901 30991 ft 308 kts 129°
2026-04-20 22:07 33.70027 -82.47843 30990 ft 308 kts 129°
2026-04-20 22:07 33.67418 -82.43762 30990 ft 308 kts 129°
2026-04-20 22:08 33.64807 -82.39683 30991 ft 308 kts 130°
2026-04-20 22:08 33.62191 -82.35606 30991 ft 308 kts 129°
2026-04-20 22:09 33.59577 -82.31531 30991 ft 308 kts 130°
2026-04-20 22:09 33.56978 -82.27485 30975 ft 303 kts 130°
2026-04-20 22:09 33.55709 -82.25512 30668 ft 293 kts 130°
2026-04-20 22:10 33.54500 -82.23624 30400 ft 279 kts 129°
2026-04-20 22:10 33.53301 -82.21760 30392 ft 286 kts 130°
2026-04-20 22:10 33.52070 -82.19856 30394 ft 291 kts 130°
2026-04-20 22:10 33.50829 -82.17927 30392 ft 294 kts 130°
2026-04-20 22:11 33.49569 -82.15973 30388 ft 298 kts 130°
2026-04-20 22:11 33.46993 -82.12024 30399 ft 303 kts 133°
2026-04-20 22:11 33.45384 -82.10405 30420 ft 304 kts 149°
2026-04-20 22:12 33.43549 -82.09315 29785 ft 290 kts 163°
2026-04-20 22:12 33.41561 -82.08764 28386 ft 298 kts 172°
2026-04-20 22:12 33.39513 -82.08274 27026 ft 301 kts 171°
2026-04-20 22:12 33.37467 -82.07737 25674 ft 301 kts 170°
2026-04-20 22:13 33.35428 -82.07203 24338 ft 299 kts 170°
2026-04-20 22:13 33.33405 -82.06689 23016 ft 297 kts 171°
2026-04-20 22:13 33.31379 -82.06176 21696 ft 298 kts 170°
2026-04-20 22:13 33.29342 -82.05656 20380 ft 301 kts 170°
2026-04-20 22:14 33.27286 -82.05134 19066 ft 303 kts 171°
2026-04-20 22:14 33.25212 -82.04607 17748 ft 306 kts 170°
2026-04-20 22:14 33.23122 -82.04074 16427 ft 308 kts 171°
2026-04-20 22:14 33.21029 -82.03542 15108 ft 305 kts 170°
2026-04-20 22:15 33.18976 -82.03016 13812 ft 298 kts 170°
2026-04-20 22:15 33.16966 -82.02502 12551 ft 293 kts 171°
2026-04-20 22:15 33.14999 -82.02000 11311 ft 284 kts 170°
2026-04-20 22:15 33.13089 -82.01511 10103 ft 278 kts 171°
2026-04-20 22:16 33.11207 -82.01033 8912 ft 275 kts 171°
2026-04-20 22:16 33.09354 -82.00560 7743 ft 270 kts 171°
2026-04-20 22:16 33.07528 -82.00104 6597 ft 266 kts 172°
2026-04-20 22:16 33.05721 -81.99745 5478 ft 261 kts 174°
2026-04-20 22:17 33.03983 -81.99503 4401 ft 241 kts 177°
2026-04-20 22:17 33.02382 -81.99382 3389 ft 222 kts 182°
2026-04-20 22:17 33.00872 -81.99409 2430 ft 212 kts 187°
2026-04-20 22:17 32.99461 -81.99572 2216 ft 201 kts 192°